Location: Dos Palmas
(32.4468°N, 116.8732°W)
Time: 01:44:35
(UTC+00:00)

Meteor 1-24 Rocket - Pass Details

Date: 24 October 2021
Orbit: 790 x 927 km, 81.3° (Epoch: 07 December)

Event Time Altitude Azimuth Distance (km) Brightness Sun altitude
Rises 12:31:54 0° 165° (SSE) 3,271 7.0 -18.9°
Reaches altitude 10° 12:34:24 10° 157° (SSE) 2,349 6.3 -18.4°
Maximum altitude 12:39:12 36° 91° (E) 1,244 5.2 -17.4°
Drops below altitude 10° 12:44:05 10° 27° (NNE) 2,403 6.4 -16.3°
Sets 12:46:40 0° 19° (NNE) 3,357 7.0 -15.8°
